Terminal Aerodrome Forecast
Issued by NWS

Home | Current Version | Previous Version | Graphics & Text | Print | Product List | Glossary Off
Versions: 1 2 3 4 5 6 7 8 9 10 11 12 13 14 15 16 17 18 19 20 21 22 23 24 25 26 27 28 29 30 31 32 33 34 35

000
FTUS43 KDDC 141720
TAFHYS
TAF
KHYS 141720Z 1418/1518 18012G19KT P6SM SKC
     FM151200 03008KT P6SM OVC100
     FM151300 03008KT P6SM OVC015
     FM151500 02010KT P6SM OVC007=

USA.gov is the U.S. government's official web portal to all federal, state and local government web resources and services.